星链-36519(STARLINK-36519)

导读

STARLINK-36519是美国SpaceX星链星座中的一颗卫星,于2026年1月14日发射升空。星链计划旨在搭建全球卫星互联网,为世界各地提供高速低延迟的宽带服务,这颗卫星加入后,进一步扩充了星链星座的在轨规模,提升星座覆盖范围与服务能力。

Basic Information
目录编号:
67449
目录名称:
STARLINK-36519
国际标识:
2026-008E
轨道中心:
EARTH
卫星名称:
星链-36519
卫星全名:
星链-36519(STARLINK-36519)
卫星状态:
在轨 (已飞行234 天)
发射日期:
2026-01-14 UTC
国别 :
美国 (US)
星等 :
--
Orbit Information
数据来源 国际轨道数据
星历时间: 2026-09-05T11:07:17+0800
9小时前
查看轨道信息
半长轴: 6861.174km
偏心率: 0.0001313
轨道倾角: 43.002°
近地点辐角 261.314°
升交点赤经 271.984°
平近点角 98.756°
近地点: 482.136km
远地点: 483.938km
周期: 94.266分钟
每日圈数: 15.275841
Detailed Information
固有亮度:
5
最大亮度:
2.5
卫星平台:
Starlink V1.0
覆盖范围:
全球
运营商:
太空探索技术公司
运营商所在国:
美国
制造商(研发单位):
太空探索技术公司
制造商所在国:
美国
使用方式:
暂无
Satellite Introduction
Starlink 计划是 SpaceX 推出的全球卫星互联网项目,通过发射低轨道卫星,为全球尤其是偏远地区提供高速、低延迟的互联网服务。自 2019 年起,Starlink 已部署数千颗卫星,旨在缩小全球数字鸿沟,推动互联网普及。该项目还为军事、航空等行业提供通信支持,带来广泛经济效益。
2D Orbit Map
3D Orbit Map
Orbit Altitude Analysis Chart
Orbit Inclination Analysis Chart
Orbit Comprehensive Analysis Chart
View Comprehensive Chart
Conjunction Data List
Event ID Objects TCA Miss Dist (km) Collision Risk Probability Collision Risk Index (CRI) Action
CDM_260831-040706-453106-744921
OBJECT D (64531)
2026-08-31T
04:07:31+0000
2.265 km
极远距离
1.615394E-6 低风险 0.39
CDM_260905-141805-370506-744921
2026-09-05T
14:18:58+0000
2.702 km
极远距离
1.198411E-6 低风险 0.37
CDM_260907-202705-683706-744921
2026-09-07T
20:27:37+0000
2.837 km
极远距离
1.004452E-6 低风险 0.35